Location: Newark
(32.9833°N, 70.6000°E)
Time: 12:02:30
(UTC+00:00)

ISS - Visible Passes

Search period start: 04 April 2020 00:00
Search period end: 14 April 2020 00:00
Orbit: 418 x 423 km, 51.6° (Epoch: 04 April)

Date Brightness Start Highest point End Pass type
(mag) Time Alt. Az. Time Alt. Az. Time Alt. Az.
04 Apr -2.7 15:13:31 10° NNW 15:16:14 34° NNE 15:16:14 34° NNE visible
05 Apr -2.1 14:26:43 10° NNW 14:29:26 22° NE 14:31:15 15° ENE visible
05 Apr -0.8 16:03:18 10° WNW 16:04:15 16° WNW 16:04:15 16° WNW visible
06 Apr -3.4 15:15:53 10° NW 15:19:12 57° SW 15:19:20 56° SW visible
07 Apr -3.8 14:28:43 10° NW 14:32:04 72° NE 14:34:31 17° SE visible
08 Apr -1.2 15:19:26 10° W 15:21:26 15° SW 15:22:48 12° SSW visible
09 Apr -1.9 14:31:29 10° WNW 14:34:24 28° SW 14:37:19 10° S visible
